Weather History for Vancouver, WA

Change the Weather History Date:

Wednesday, January 23, 2013

  Actual Average Record
Temperature  
Mean Temperature 35 °F 42 °F  
Max Temperature 36 °F 49 °F 61 °F (1953)
Min Temperature 33 °F 36 °F 11 °F (1949)
Degree Days  
Heating Degree Days 30    
Month to date heating degree days 694  
Since 1 July heating degree days 2242  
Cooling Degree Days 0    
Month to date cooling degree days 0  
Year to date cooling degree days 0  
Moisture  
Dew Point 28 °F    
Average Humidity 74    
Maximum Humidity 89    
Minimum Humidity 59    
Precipitation  
Precipitation 0.22 in 0.16 in 2.05 in (1965)
Month to date precipitation 1.24 4.23  
Year to date precipitation 1.24 4.23  
Snow  
Snow 0.00 in - - ()
Month to date snowfall 0.0  
Snow Depth 0.00 in    
Sea Level Pressure  
Sea Level Pressure 30.04 in    
Wind  
Wind Speed 5 mph (ESE)    
Max Wind Speed 12 mph    
Max Gust Speed 15 mph    
Visibility 8 miles    
Events Rain    
T = Trace of Precipitation, MM = Missing Value Source: NWS Daily Summary

Daily Weather History Graph

Daily Weather History Graph

Search for Another Location

Airport:

Trip Planner

Search our weather history database for the weather conditions in past years. The results will help you decide how hot, cold, wet, or windy it might be!

Date:

Astronomy

Jan. 23, 2013 Rise Set
Actual Time 7:41 AM PST 5:04 PM PST
Civil Twilight 7:08 AM PST 5:37 PM PST
Nautical Twilight 6:32 AM PST 6:13 PM PST
Astronomical Twilight 5:57 AM PST 6:48 PM PST
Moon 2:17 PM PST (1/23) 4:59 AM PST (1/23)
Length of Visible Light 10h 28m
Length of Day
9h 23m
Waxing Gibbous, 90% of the Moon is Illuminated
Jan 23
Waxing Gibbous
Jan 26
Full
Feb 3
Last Quarter
Feb 9
New
Feb 17
First Quarter

Hourly Weather History & Observations

Time (PST) Temp. Windchill Dew Point Humidity Pressure Visibility Wind Dir Wind Speed Gust Speed Precip Events Conditions
12:53 AM 34.0 °F 28.0 °F 23.0 °F 64% 29.99 in 10.0 mi SE 6.9 mph - N/A   Partly Cloudy
1:53 AM 34.0 °F 28.0 °F 23.0 °F 64% 29.99 in 10.0 mi SE 6.9 mph - N/A   Clear
2:53 AM 34.0 °F 28.0 °F 23.0 °F 64% 29.99 in 10.0 mi ESE 6.9 mph - N/A   Overcast
3:53 AM 34.0 °F 28.8 °F 24.1 °F 67% 29.96 in 10.0 mi East 5.8 mph - N/A   Mostly Cloudy
4:53 AM 34.0 °F 29.8 °F 23.0 °F 64% 29.92 in 10.0 mi ESE 4.6 mph - N/A   Overcast
5:53 AM 35.1 °F - 23.0 °F 61% 29.95 in 10.0 mi Calm Calm - N/A   Overcast
6:53 AM 34.0 °F - 25.0 °F 70% 29.95 in 10.0 mi Calm Calm - N/A   Mostly Cloudy
7:53 AM 34.0 °F 29.8 °F 23.0 °F 64% 29.93 in 10.0 mi SE 4.6 mph - N/A   Overcast
8:53 AM 34.0 °F 28.8 °F 21.9 °F 61% 29.95 in 10.0 mi SSE 5.8 mph - N/A   Overcast
9:53 AM 35.1 °F 30.1 °F 23.0 °F 61% 29.94 in 10.0 mi SE 5.8 mph - N/A   Overcast
10:53 AM 35.1 °F 27.9 °F 23.0 °F 61% 29.96 in 10.0 mi SE 9.2 mph - N/A   Overcast
11:53 AM 35.1 °F 30.1 °F 25.0 °F 67% 29.96 in 8.0 mi SE 5.8 mph - 0.00 in Rain Light Rain
12:53 PM 34.0 °F 28.8 °F 27.0 °F 75% 29.96 in 7.0 mi SE 5.8 mph - 0.02 in Rain Light Rain
1:53 PM 34.0 °F 27.2 °F 28.9 °F 82% 29.96 in 5.0 mi ESE 8.1 mph - 0.05 in Rain Light Rain
2:53 PM 34.0 °F 29.8 °F 30.0 °F 85% 29.99 in 3.0 mi SSE 4.6 mph - 0.04 in Rain Light Rain
3:50 PM 33.8 °F 29.6 °F 30.2 °F 87% 30.04 in 4.0 mi ESE 4.6 mph - 0.07 in Rain Light Rain
3:53 PM 33.1 °F 26.9 °F 30.0 °F 89% 30.04 in 4.0 mi SE 6.9 mph - 0.07 in Rain Light Rain
4:50 PM 33.8 °F 28.6 °F 30.2 °F 87% 30.04 in 6.0 mi ESE 5.8 mph - 0.04 in Rain Light Rain
4:53 PM 34.0 °F 27.2 °F 30.9 °F 89% 30.04 in 6.0 mi ESE 8.1 mph - 0.04 in Rain Light Rain
5:40 PM 33.8 °F 27.7 °F 30.2 °F 87% 30.07 in 8.0 mi ESE 6.9 mph - 0.00 in   Overcast
5:53 PM 33.1 °F 27.7 °F 30.0 °F 89% 30.08 in 8.0 mi ESE 5.8 mph - 0.00 in   Overcast
6:05 PM 33.8 °F 27.7 °F 30.2 °F 87% 30.08 in 8.0 mi ESE 6.9 mph - N/A   Overcast
6:38 PM 33.8 °F 27.7 °F 30.2 °F 87% 30.10 in 9.0 mi East 6.9 mph - N/A   Overcast
6:53 PM 34.0 °F 28.8 °F 30.0 °F 85% 30.11 in 9.0 mi East 5.8 mph - N/A   Overcast
7:20 PM 33.8 °F 28.6 °F 30.2 °F 87% 30.11 in 8.0 mi ESE 5.8 mph - N/A   Overcast
7:36 PM 33.8 °F 27.7 °F 30.2 °F 87% 30.12 in 8.0 mi ESE 6.9 mph - N/A   Overcast
7:53 PM 34.0 °F 29.8 °F 30.9 °F 89% 30.13 in 8.0 mi ESE 4.6 mph - N/A   Overcast
8:53 PM 34.0 °F 29.8 °F 30.9 °F 89% 30.17 in 8.0 mi East 4.6 mph - N/A   Overcast
9:53 PM 34.0 °F 29.8 °F 30.9 °F 89% 30.19 in 7.0 mi ESE 4.6 mph - N/A   Overcast
10:53 PM 34.0 °F 31.0 °F 30.9 °F 89% 30.22 in 7.0 mi SE 3.5 mph - N/A   Overcast
11:18 PM 33.8 °F - 30.2 °F 87% 30.22 in 7.0 mi Calm Calm - N/A   Overcast
11:53 PM 34.0 °F - 32.0 °F 92% 30.23 in 6.0 mi Calm Calm - N/A   Overcast